GW1454 Weather Reports


Display with metric or nautical units.
time (UTC)temp
F
wind
direction
speed
MPH
gust
MPH
rain 1hr
in
rain 24hr
in
rain mn
in
humidity
%
barometer
mb
20260502223547 61 0 0.0 3.0 0.00 0.00 0.00 40 1012.2
20260502223051 62 334 0.0 2.0 0.00 0.00 0.00 41 1012.2
20260502222546 61 76 0.0 4.0 0.00 0.00 0.00 42 1012.0
20260502222050 61 125 0.0 4.0 0.00 0.00 0.00 42 1011.9
20260502221554 60 113 2.0 4.0 0.00 0.00 0.00 42 1011.8
20260502221047 61 0 0.0 8.0 0.00 0.00 0.00 41 1011.7
20260502220548 60 89 3.0 8.0 0.00 0.00 0.00 41 1011.7
20260502220053 61 104 1.0 8.0 0.00 0.00 0.00 41 1011.7
20260502215547 60 0 1.0 8.0 0.00 0.00 0.00 43 1011.8
20260502215045 61 105 4.0 7.0 0.00 0.00 0.00 41 1011.6
20260502214551 61 0 2.0 4.0 0.00 0.00 0.00 41 1011.7
20260502214047 61 159 1.0 7.0 0.00 0.00 0.00 39 1011.8
20260502213546 61 0 3.0 9.0 0.00 0.00 0.00 40 1011.7
20260502213107 62 240 1.0 9.0 0.00 0.00 0.00 40 1011.6
20260502212545 62 82 3.0 9.0 0.00 0.00 0.00 38 1011.6
20260502212048 62 0 1.0 8.0 0.00 0.00 0.00 41 1011.6
20260502211556 61 329 1.0 8.0 0.00 0.00 0.00 39 1011.5
20260502211047 61 262 2.0 7.0 0.00 0.00 0.00 39 1011.6
20260502210548 61 294 1.0 7.0 0.00 0.00 0.00 42 1011.5
20260502210101 60 268 1.0 7.0 0.00 0.00 0.00 41 1011.6
20260502205548 60 300 3.0 8.0 0.00 0.00 0.00 38 1011.7
20260502205046 61 227 3.0 8.0 0.00 0.00 0.00 38 1011.6
20260502204606 61 50 2.0 8.0 0.00 0.00 0.00 39 1011.7
20260502204051 61 194 1.0 6.0 0.00 0.00 0.00 39 1011.8
20260502203544 61 320 2.0 8.0 0.00 0.00 0.00 42 1011.7
20260502203103 60 201 1.0 8.0 0.00 0.00 0.00 40 1011.8
20260502202545 60 113 1.0 5.0 0.00 0.00 0.00 38 1011.8
20260502202044 59 23 1.0 4.0 0.00 0.00 0.00 41 1011.9
20260502201550 59 196 1.0 4.0 0.00 0.00 0.00 41 1011.9
20260502201046 58 185 2.0 4.0 0.00 0.00 0.00 39 1011.9
20260502200546 59 20 2.0 4.0 0.00 0.00 0.00 38 1012.0
20260502200128 59 247 1.0 4.0 0.00 0.00 0.00 39 1012.1
20260502195546 59 0 2.0 4.0 0.00 0.00 0.00 41 1012.2
20260502195048 59 186 0.0 4.0 0.00 0.00 0.00 38 1012.4
20260502194608 59 238 1.0 4.0 0.00 0.00 0.00 39 1012.5
20260502194045 59 0 0.0 4.0 0.00 0.00 0.00 40 1012.5
20260502193548 59 151 1.0 4.0 0.00 0.00 0.00 41 1012.6
20260502193055 59 288 0.0 7.0 0.00 0.00 0.00 39 1012.6
20260502192547 59 0 1.0 8.0 0.00 0.00 0.00 39 1012.7
20260502192047 59 148 1.0 8.0 0.00 0.00 0.00 39 1012.7
20260502191556 59 202 2.0 6.0 0.00 0.00 0.00 38 1012.7
20260502191048 59 298 0.0 5.0 0.00 0.00 0.00 39 1012.8
20260502190545 58 59 1.0 10.0 0.00 0.00 0.00 41 1012.8
20260502190055 58 142 1.0 10.0 0.00 0.00 0.00 41 1012.9
20260502185545 58 127 4.0 10.0 0.00 0.00 0.00 42 1013.0
20260502185045 57 157 2.0 8.0 0.00 0.00 0.00 42 1013.0
20260502184558 56 113 1.0 9.0 0.00 0.00 0.00 41 1013.1
20260502184049 56 201 3.0 9.0 0.00 0.00 0.00 45 1013.1
20260502183548 56 169 2.0 9.0 0.00 0.00 0.00 43 1013.2
20260502183104 56 311 1.0 6.0 0.00 0.00 0.00 43 1013.2
20260502182547 56 289 2.0 5.0 0.00 0.00 0.00 42 1013.2
20260502182045 56 159 1.0 4.0 0.00 0.00 0.00 47 1013.2
20260502181555 56 171 1.0 4.0 0.00 0.00 0.00 46 1013.2
20260502181048 56 159 1.0 7.0 0.00 0.00 0.00 46 1013.3
20260502180545 55 121 3.0 8.0 0.00 0.00 0.00 45 1013.1
20260502164048 54 173 2.0 7.0 0.00 0.00 0.00 50 1014.2
20260502163548 54 0 2.0 4.0 0.00 0.00 0.00 49 1014.1
20260502163054 54 219 1.0 5.0 0.00 0.00 0.00 48 1014.2
20260502162545 54 146 1.0 5.0 0.00 0.00 0.00 51 1014.4
20260502162044 54 153 2.0 4.0 0.00 0.00 0.00 52 1014.4
20260502161549 55 163 1.0 3.0 0.00 0.00 0.00 52 1014.5
20260502161045 54 155 1.0 5.0 0.00 0.00 0.00 53 1014.4
20260502160546 54 171 1.0 5.0 0.00 0.00 0.00 53 1014.4
20260502160104 54 267 0.0 5.0 0.00 0.00 0.00 55 1014.5
20260502152047 53 119 0.0 4.0 0.00 0.00 0.00 57 1014.7
20260502151606 53 180 1.0 4.0 0.00 0.00 0.00 57 1014.6
20260502151048 53 189 1.0 7.0 0.00 0.00 0.00 57 1014.6
20260502150546 53 138 1.0 7.0 0.00 0.00 0.00 56 1014.5
20260502150124 53 126 2.0 6.0 0.00 0.00 0.00 57 1014.5
20260502130546 52 0 0.0 2.0 0.00 0.00 0.00 65 1014.0
20260502130104 52 0 0.0 4.0 0.00 0.00 0.00 66 1014.3
20260502123544 53 167 0.0 3.0 0.00 0.00 0.00 66 1013.3
20260502123051 53 0 1.0 4.0 0.00 0.00 0.00 68 1013.3
20260502122545 52 0 1.0 4.0 0.00 0.00 0.00 70 1013.4
20260502122045 52 0 1.0 4.0 0.00 0.00 0.00 70 1013.6
20260502121559 52 44 0.0 6.0 0.00 0.00 0.00 70 1013.7
20260502121049 52 0 0.0 6.0 0.00 0.00 0.00 72 1013.6
20260502120544 52 0 0.0 4.0 0.00 0.00 0.00 70 1013.7
20260502120105 52 111 0.0 4.0 0.00 0.00 0.00 71 1013.6
20260502115547 52 148 0.0 6.0 0.00 0.00 0.00 71 1013.6
20260502115045 52 149 1.0 8.0 0.00 0.00 0.00 70 1013.7
20260502114558 52 138 1.0 8.0 0.00 0.00 0.00 72 1013.6
20260502114046 52 0 1.0 4.0 0.00 0.00 0.00 72 1013.5
20260502113546 52 170 1.0 4.0 0.00 0.00 0.00 71 1013.2
20260502113111 52 0 0.0 4.0 0.00 0.00 0.00 74 1013.2
20260502112545 52 0 1.0 8.0 0.00 0.00 0.00 74 1013.2
20260502112048 52 167 3.0 8.0 0.00 0.00 0.00 74 1013.4
20260502111602 52 0 0.0 4.0 0.00 0.00 0.00 77 1013.3
20260502111045 52 0 0.0 4.0 0.00 0.00 0.00 77 1013.3
20260502110549 51 0 0.0 2.0 0.00 0.00 0.00 77 1013.2
20260502110104 51 0 0.0 2.0 0.00 0.00 0.00 78 1013.1
20260502105545 51 0 0.0 1.0 0.00 0.00 0.00 78 1013.3
20260502105046 51 0 0.0 1.0 0.00 0.00 0.00 78 1013.2
20260502104556 51 136 0.0 1.0 0.00 0.00 0.00 79 1013.1
20260502104045 51 0 0.0 1.0 0.00 0.00 0.00 80 1013.1
20260502103545 51 0 0.0 1.0 0.00 0.00 0.00 80 1013.0
20260502103108 50 0 0.0 0.0 0.00 0.00 0.00 81 1013.1
20260502102547 50 0 0.0 0.0 0.00 0.00 0.00 82 1013.2
20260502102045 50 0 0.0 0.0 0.00 0.00 0.00 84 1013.2
20260502101600 50 0 0.0 0.0 0.00 0.00 0.00 84 1013.2
20260502101045 50 0 0.0 0.0 0.00 0.00 0.00 85 1013.4
20260502100547 50 0 0.0 0.0 0.00 0.00 0.00 85 1013.5
20260502091046 50 0 0.0 0.0 0.00 0.00 0.00 90 1013.5
20260502090545 50 0 0.0 0.0 0.00 0.00 0.00 89 1013.4
20260502071045 51 0 0.0 0.0 0.00 0.00 0.00 87 1012.5
20260502070546 51 0 0.0 0.0 0.00 0.00 0.00 87 1012.4
20260502070054 51 0 0.0 0.0 0.00 0.00 0.00 87 1012.4
20260502065547 51 0 0.0 0.0 0.00 0.00 0.00 87 1012.4
20260502065045 51 0 0.0 0.0 0.00 0.00 0.00 87 1012.4
20260502064554 51 0 0.0 0.0 0.00 0.00 0.00 87 1012.5
20260502064048 51 0 0.0 0.0 0.00 0.00 0.00 87 1012.6
20260502063548 51 0 0.0 0.0 0.00 0.00 0.00 87 1012.6
20260502063113 51 0 0.0 0.0 0.00 0.00 0.00 87 1012.7
20260502062547 51 0 0.0 0.0 0.00 0.00 0.00 87 1012.9
20260502062047 51 0 0.0 0.0 0.00 0.00 0.00 87 1012.9
20260502061555 51 0 0.0 3.0 0.00 0.00 0.00 87 1013.0
20260502061047 51 0 0.0 3.0 0.00 0.00 0.00 88 1013.1
20260502060548 50 135 0.0 3.0 0.00 0.00 0.00 88 1013.1
20260502060105 50 0 0.0 3.0 0.00 0.00 0.00 88 1012.9
20260502055549 50 0 0.0 0.0 0.00 0.00 0.00 88 1013.1
20260502055048 50 0 0.0 0.0 0.00 0.00 0.00 88 1012.7
20260502054607 50 0 0.0 0.0 0.00 0.00 0.00 88 1012.7
20260502054046 50 0 0.0 0.0 0.00 0.00 0.00 88 1012.7
20260502053547 50 0 0.0 0.0 0.00 0.00 0.00 88 1012.7
20260502053056 50 0 0.0 0.0 0.00 0.00 0.00 88 1012.7
20260502052545 50 0 0.0 0.0 0.00 0.00 0.00 88 1012.7
20260502052045 50 0 0.0 0.0 0.00 0.00 0.00 88 1012.7
20260502051552 49 0 0.0 0.0 0.00 0.00 0.00 88 1012.8
20260502051046 49 0 0.0 0.0 0.00 0.00 0.00 88 1012.7
20260502050545 50 0 0.0 0.0 0.00 0.00 0.00 88 1012.9
20260502050056 49 0 0.0 0.0 0.00 0.00 0.00 88 1012.9
20260502045547 49 0 0.0 0.0 0.00 0.00 0.00 88 1012.9
20260502045047 49 0 0.0 0.0 0.00 0.00 0.00 88 1012.8
20260502044553 49 0 0.0 0.0 0.00 0.00 0.00 88 1012.9
20260502044046 49 0 0.0 0.0 0.00 0.00 0.00 88 1013.0
20260502043548 49 0 0.0 0.0 0.00 0.00 0.00 88 1012.9
20260502043105 49 0 0.0 0.0 0.00 0.00 0.00 88 1013.0
20260502042548 49 0 0.0 0.0 0.00 0.00 0.00 87 1013.0
20260502042046 49 0 0.0 0.0 0.00 0.00 0.00 87 1013.0
20260502041556 50 0 0.0 0.0 0.00 0.00 0.00 87 1012.9
20260502041048 50 0 0.0 0.0 0.00 0.00 0.00 87 1012.9
20260502040545 50 0 0.0 0.0 0.00 0.00 0.00 87 1012.9
20260502035545 50 0 0.0 0.0 0.00 0.00 0.00 86 1013.0
20260502035045 50 0 0.0 0.0 0.00 0.00 0.00 85 1013.1
20260502034557 50 0 0.0 0.0 0.00 0.00 0.00 85 1013.1
20260502034049 51 0 0.0 0.0 0.00 0.00 0.00 85 1013.1
20260502033548 51 0 0.0 0.0 0.00 0.00 0.00 84 1013.2
20260502033057 51 0 0.0 0.0 0.00 0.00 0.00 84 1013.2
20260502032547 51 0 0.0 0.0 0.00 0.00 0.00 83 1013.2
20260502032048 52 0 0.0 0.0 0.00 0.00 0.00 83 1013.3
20260502031558 52 0 0.0 0.0 0.00 0.00 0.00 83 1013.3
20260502031048 52 0 0.0 0.0 0.00 0.00 0.00 82 1013.3
20260502030548 52 0 0.0 0.0 0.00 0.00 0.00 83 1013.2
20260502030106 52 0 0.0 0.0 0.00 0.00 0.00 82 1013.2
20260502025547 52 0 0.0 0.0 0.00 0.00 0.00 82 1013.3
20260502025049 53 0 0.0 0.0 0.00 0.00 0.00 82 1013.2
20260502024556 53 0 0.0 0.0 0.00 0.00 0.00 82 1013.3
20260502024050 53 0 0.0 0.0 0.00 0.00 0.00 81 1013.3
20260502023548 53 0 0.0 0.0 0.00 0.00 0.00 81 1013.4
20260502023101 53 0 0.0 2.0 0.00 0.00 0.00 81 1013.2
20260502022547 53 0 0.0 2.0 0.00 0.00 0.00 81 1013.2
20260502022047 53 0 0.0 2.0 0.00 0.00 0.00 81 1013.3
20260502021556 53 0 0.0 0.0 0.00 0.00 0.00 81 1013.2
20260502021048 53 0 0.0 0.0 0.00 0.00 0.00 81 1013.1
20260502020547 54 0 0.0 3.0 0.00 0.00 0.00 80 1013.2
20260502020056 54 0 0.0 3.0 0.00 0.00 0.00 80 1013.1
20260502015546 54 0 0.0 2.0 0.00 0.00 0.00 80 1013.1
20260502015046 54 0 0.0 1.0 0.00 0.00 0.00 79 1013.2
20260502014557 54 0 0.0 4.0 0.00 0.00 0.00 79 1013.1
20260502014046 55 0 0.0 4.0 0.00 0.00 0.00 79 1013.4
20260502013545 55 0 0.0 3.0 0.00 0.00 0.00 79 1013.4
20260502013058 55 96 1.0 3.0 0.00 0.00 0.00 78 1013.3
20260502012545 55 50 1.0 3.0 0.00 0.00 0.00 78 1013.2
20260502012045 55 306 0.0 3.0 0.00 0.00 0.00 78 1013.2
20260502011551 55 103 0.0 3.0 0.00 0.00 0.00 77 1013.1
20260502011045 56 0 0.0 5.0 0.00 0.00 0.00 77 1013.1
20260502010549 56 0 0.0 5.0 0.00 0.00 0.00 76 1013.1
20260502010056 56 51 0.0 3.0 0.00 0.00 0.00 76 1013.2
20260502005546 56 0 0.0 3.0 0.00 0.00 0.00 76 1012.9
20260502005047 56 78 0.0 4.0 0.00 0.00 0.00 75 1012.9
20260502004551 56 0 0.0 4.0 0.00 0.00 0.00 75 1012.7
20260502004048 57 86 0.0 4.0 0.00 0.00 0.00 74 1012.5
20260502003545 57 0 0.0 4.0 0.00 0.00 0.00 73 1012.3
20260502003057 57 0 1.0 3.0 0.00 0.00 0.00 73 1012.3
20260502002545 57 123 0.0 9.0 0.00 0.00 0.00 73 1012.3
20260502002045 57 40 2.0 9.0 0.00 0.00 0.00 72 1012.3
20260502001556 57 88 2.0 5.0 0.00 0.00 0.00 71 1012.3
20260502001049 58 0 0.0 4.0 0.00 0.00 0.00 71 1012.1
20260502000547 58 0 1.0 4.0 0.00 0.00 0.00 70 1012.1
20260502000058 58 0 0.0 4.0 0.00 0.00 0.00 69 1012.0
20260501235546 58 0 0.0 4.0 0.00 0.00 0.00 68 1011.9
20260501235047 59 86 0.0 4.0 0.00 0.00 0.00 67 1011.9
20260501234555 59 0 0.0 5.0 0.00 0.00 0.00 66 1011.8
20260501234048 60 311 1.0 5.0 0.00 0.00 0.00 65 1011.8
20260501233548 60 157 1.0 6.0 0.00 0.00 0.00 64 1011.9
20260501233055 60 0 1.0 6.0 0.00 0.00 0.00 63 1011.9
20260501232546 61 65 2.0 6.0 0.00 0.00 0.00 62 1011.9
20260501232047 61 92 1.0 6.0 0.00 0.00 0.00 61 1012.0
20260501231551 62 264 1.0 4.0 0.00 0.00 0.00 60 1012.0
20260501231046 62 257 1.0 8.0 0.00 0.00 0.00 59 1011.9
20260501230546 62 124 1.0 8.0 0.00 0.00 0.00 58 1011.8
20260501230052 63 51 2.0 8.0 0.00 0.00 0.00 57 1011.9
20260501225547 64 116 2.0 6.0 0.00 0.00 0.00 56 1012.0
20260501225047 64 68 1.0 7.0 0.00 0.00 0.00 55 1011.8
20260501224552 65 306 1.0 8.0 0.00 0.00 0.00 55 1011.8
20260501224047 66 85 2.0 8.0 0.00 0.00 0.00 54 1011.8